User: anonymous   Login
Location: Unspecified
(0.0000°N, 0.0000°E)
Time: 03:10:52
(UTC+00:00)
Language:

KKS-1 - Orbit

View from above orbital plane
View from above orbital plane
View from above satellite
View from above satellite

Ground track
Ground track

The orbit data is extracted from the following two-line orbital elements,

1 33499U 09002H   24206.56509501  .00003290  00000-0  45248-3 0  9994
2 33499  98.1349 108.6254 0008934  20.4347 339.7219 14.78988771833642
Epoch (UTC): 24 July 2024 13:33:44
Eccentricity: 0.0008934
inclination: 98.1349°
perigee height: 626 km
apogee height: 639 km
right ascension of ascending node: 108.6254°
argument of perigee: 20.4347°
revolutions per day: 14.78988771
mean anomaly at epoch: 339.7219°
orbit number at epoch: 83364

The dashed part of the orbit path shows where the satellite is in the earth's shadow,  

DLR